Marshalltown, IA

12:15 PM CDT on April 26, 2017 (GMT -0500)
Marshalltown Municipal

Weather History for KMIW - March, 2013

Change the Weather History Date:

Sunday, March 31, 2013

  Actual Average Record
Temperature  
Mean Temperature 38 °F 43 °F  
Max Temperature 48 °F 54 °F 72 °F (2014)
Min Temperature 28 °F 32 °F 19 °F (1997)
Degree Days  
Heating Degree Days 27 22  
Month to date heating degree days 1142 894  
Since 1 July heating degree days 6146 6301  
Cooling Degree Days 0 0  
Month to date cooling degree days 0 0  
Year to date cooling degree days 0 0  
Moisture  
Dew Point 32 °F    
Average Humidity 77    
Maximum Humidity 100    
Minimum Humidity 53    
Precipitation  
Precipitation 0.00 in 0.10 in 0.55 in (2007)
Month to date precipitation 1.74 2.00  
Sea Level Pressure  
Sea Level Pressure 29.92 in    
Wind  
Wind Speed 16 mph (NW)    
Max Wind Speed 31 mph    
Max Gust Speed 36 mph    
Visibility 5 miles    
Events Fog    
T = Trace of Precipitation, MM = Missing Value Source: NWS Daily Summary

Daily Weather History Graph

Daily Weather History Graph

Search for Another Location

Airport or City:

Trip Planner

Search our weather history database for the weather conditions in past years. The results will help you decide how hot, cold, wet, or windy it might be!

Date:

Astronomy

Mar. 31, 2013 Rise Set
Actual Time 6:55 AM CDT 7:36 PM CDT
Civil Twilight 6:27 AM CDT 8:04 PM CDT
Nautical Twilight 5:54 AM CDT 8:38 PM CDT
Astronomical Twilight 5:19 AM CDT 9:12 PM CDT
Moon No Moon Rise 9:39 AM CDT (3/31)
Length of Visible Light 13h 37m
Length of Day
12h 41m
Waning Gibbous, 77% of the Moon is Illuminated
Mar 31
Waning Gibbous
Apr 2
Last Quarter
Apr 10
New
Apr 18
First Quarter
Apr 25
Full

Hourly Weather History & Observations

Time (CDT) Temp. Windchill Dew Point Humidity Pressure Visibility Wind Dir Wind Speed Gust Speed Precip Events Conditions
12:38 AM 33.8 °F 28.6 °F 33.8 °F 100% 29.88 in 0.5 mi WNW 5.8 mph - N/A Fog Fog
12:53 AM 35.1 °F 31.0 °F 35.1 °F 100% 29.90 in 1.5 mi WNW 4.6 mph - N/A   Overcast
1:06 AM 35.6 °F 31.7 °F 35.6 °F 100% 29.88 in 2.5 mi NW 4.6 mph - N/A   Overcast
1:14 AM 35.6 °F 30.7 °F 35.6 °F 100% 29.88 in 3.0 mi NW 5.8 mph - N/A   Overcast
1:53 AM 37.0 °F 31.0 °F 37.0 °F 100% 29.89 in 4.0 mi NNW 8.1 mph - N/A   Overcast
2:53 AM 35.1 °F 31.0 °F 35.1 °F 100% 29.89 in 3.0 mi WNW 4.6 mph - N/A   Clear
3:53 AM 36.0 °F 29.6 °F 36.0 °F 100% 29.89 in 3.0 mi WNW 8.1 mph - N/A   Clear
4:44 AM 33.8 °F 27.0 °F 33.8 °F 100% 29.87 in 2.5 mi WNW 8.1 mph - N/A   Clear
4:53 AM 33.1 °F 25.5 °F 33.1 °F 100% 29.88 in 2.0 mi WNW 9.2 mph - N/A   Clear
5:19 AM 33.8 °F 25.8 °F 33.8 °F 100% 29.87 in 3.0 mi NW 10.4 mph - N/A   Clear
5:53 AM 34.0 °F 25.5 °F 33.1 °F 96% 29.90 in 3.0 mi NW 11.5 mph - N/A   Clear
6:26 AM 33.8 °F 26.4 °F 32.0 °F 93% 29.87 in 2.5 mi NW 9.2 mph - N/A   Clear
6:53 AM 32.0 °F 25.6 °F 30.9 °F 96% 29.89 in 2.0 mi West 6.9 mph - N/A   Clear
7:01 AM 32.0 °F 26.4 °F 30.2 °F 93% 29.87 in 1.5 mi West 5.8 mph - N/A   Partly Cloudy
7:53 AM 33.1 °F 26.9 °F 33.1 °F 100% 29.89 in 0.8 mi West 6.9 mph - N/A   Clear
8:03 AM 33.8 °F 27.7 °F 33.8 °F 100% 29.87 in 1.0 mi West 6.9 mph - N/A   Clear
8:21 AM 33.8 °F 25.3 °F 33.8 °F 100% 29.87 in 1.0 mi West 11.5 mph - N/A   Mist
8:28 AM 33.8 °F 24.8 °F 33.8 °F 100% 29.88 in 0.2 mi West 12.7 mph - N/A Fog Fog
8:53 AM 33.1 °F 24.4 °F 33.1 °F 100% 29.90 in 0.5 mi NW 11.5 mph 21.9 mph N/A Fog Fog
9:15 AM 35.6 °F 27.1 °F 33.8 °F 93% 29.88 in 1.8 mi WNW 12.7 mph - N/A   Overcast
9:21 AM 35.6 °F 27.1 °F 33.8 °F 93% 29.88 in 2.5 mi NW 12.7 mph - N/A   Overcast
9:28 AM 35.6 °F 25.5 °F 33.8 °F 93% 29.88 in 4.0 mi NW 17.3 mph - N/A   Overcast
9:35 AM 35.6 °F 26.6 °F 33.8 °F 93% 29.88 in 4.0 mi NW 13.8 mph - N/A   Overcast
9:53 AM 37.0 °F 28.5 °F 35.1 °F 93% 29.90 in 5.0 mi NW 13.8 mph - N/A   Mostly Cloudy
10:25 AM 39.2 °F 30.8 °F 37.4 °F 93% 29.88 in 7.0 mi WNW 15.0 mph - N/A   Scattered Clouds
10:53 AM 42.1 °F 33.9 °F 37.9 °F 85% 29.91 in 9.0 mi WNW 17.3 mph - N/A   Partly Cloudy
11:53 AM 46.9 °F - 37.0 °F 68% 29.90 in 10.0 mi WNW 21.9 mph 32.2 mph N/A   Partly Cloudy
12:53 PM 48.0 °F - 36.0 °F 63% 29.91 in 10.0 mi NW 27.6 mph 34.5 mph N/A   Partly Cloudy
1:53 PM 45.0 °F 36.4 °F 33.1 °F 63% 29.93 in 10.0 mi NW 23.0 mph 29.9 mph N/A   Scattered Clouds
2:53 PM 45.0 °F 36.2 °F 32.0 °F 60% 29.94 in 10.0 mi NW 24.2 mph 32.2 mph N/A   Scattered Clouds
3:53 PM 44.1 °F 35.0 °F 30.9 °F 60% 29.94 in 10.0 mi NW 24.2 mph 29.9 mph N/A   Scattered Clouds
4:53 PM 44.1 °F 35.0 °F 28.9 °F 55% 29.96 in 10.0 mi NW 24.2 mph 29.9 mph N/A   Mostly Cloudy
5:53 PM 41.0 °F 31.9 °F 28.0 °F 60% 29.96 in 10.0 mi NW 19.6 mph 28.8 mph N/A   Scattered Clouds
6:53 PM 37.9 °F 28.2 °F 27.0 °F 65% 29.99 in 10.0 mi NW 18.4 mph 26.5 mph N/A   Mostly Cloudy
7:53 PM 35.1 °F 26.9 °F 25.0 °F 67% 30.00 in 10.0 mi NW 11.5 mph - N/A   Mostly Cloudy
8:53 PM 34.0 °F 24.2 °F 24.1 °F 67% 30.03 in 10.0 mi NNW 15.0 mph - N/A   Mostly Cloudy
9:53 PM 33.1 °F 20.9 °F 21.9 °F 64% 30.06 in 10.0 mi NW 21.9 mph - N/A   Overcast
10:53 PM 30.9 °F 20.7 °F 23.0 °F 72% 30.08 in 10.0 mi NW 13.8 mph - N/A   Mostly Cloudy
11:53 PM 30.0 °F 17.2 °F 21.0 °F 69% 30.09 in 10.0 mi NW 20.7 mph - N/A   Mostly Cloudy